Regional Weather Roundup
Issued by NWS Sioux Falls, SD

Home | Current Version | Previous Version | Text Only | Print | Product List | Glossary Off
Versions: 1 2 3 4 5 6 7 8 9 10 11 12 13 14 15 16 17 18 19 20 21 22 23 24 25 26 27 28 29 30 31 32 33 34 35 36 37 38 39 40 41 42 43 44 45 46 47 48 49 50

000
ASUS43 KFSD 250510
RWRFSD

WEATHER ROUNDUP FOR SE SOUTH DAKOTA/SW MINNESOTA/NW IOWA
NATIONAL WEATHER SERVICE SIOUX FALLS SD
1100 PM CST FRI FEB 24 2017

NOTE: "FAIR" INDICATES FEW OR NO CLOUDS BELOW 12,000 FEET WITH NO
SIGNIFICANT WEATHER AND OR OBSTRUCTIONS TO VISIBILITY.


SDZ038>040-050-052>070-250600-
SOUTHEAST SOUTH DAKOTA

CITY           SKY/WX    TMP DP  RH WIND       PRES   REMARKS
BROOKINGS      MOCLDY    20  13  74 N17G28    30.03S WCI   5
CHAMBERLAIN    CLEAR     24  17  74 N6        30.13F WCI  17
HURON          CLEAR     20  16  84 NW12      30.11S WCI   8
MADISON        CLOUDY    19  19 100 N13G21    30.04S WCI   7
MITCHELL       CLEAR     22  17  81 NW13      30.12R WCI  10
SIOUX FALLS    CLOUDY    20  14  77 N15       30.04S WCI   6
WINNER         FAIR      19  12  74 N7        30.12F WCI  10
YANKTON        CLEAR     21  12  68 NW17      30.10R WCI   7
$$

MNZ071-072-080-081-089-090-097-098-250600-
SOUTHWEST MINNESOTA

CITY           SKY/WX    TMP DP  RH WIND       PRES   REMARKS
FAIRMONT       CLOUDY    19  14  81 NW22      29.92R WCI   2
JACKSON        CLOUDY    19  14  79 NW29G39   29.94R HAZE    WCI   1
LUVERNE        CLEAR     19  12  73 N15G23    30.02S WCI   5
MARSHALL       CLEAR     19  12  74 NW24G32   30.01S WCI   2
MONTEVIDEO     CLEAR     19  12  73 N23G29    30.03S WCI   2
PIPESTONE      CLEAR     19  10  68 N15G21    30.00S WCI   5
REDWOOD FALLS  CLEAR     20  11  68 NW18G26   29.98R WCI   5
TRACY          CLEAR     20  15  79 NW24      30.00R WCI   3
WINDOM         CLOUDY    18  12  79 NW25G33   29.95R WCI  -1
WORTHINGTON    CLOUDY    17  12  80 NW25      29.97S WCI  -1
$$

IAZ001>003-012>014-020>022-031-032-NEZ013-014-SDZ071-250600-
NORTHWEST IOWA

CITY           SKY/WX    TMP DP  RH WIND       PRES   REMARKS
CHEROKEE       CLEAR     20  14  77 N17       29.99S WCI   5
DENISON        CLOUDY    21  16  79 N15G23    29.98R WCI   8
ESTHERVILLE    CLOUDY    18  15  88 NW26      29.93R WCI  -1
LE MARS        CLEAR     19  14  79 NW12      30.05R WCI   7
SHELDON        CLEAR     19  18  93 NW22      29.98R WCI   3
SIOUX CITY     CLEAR     22  14  71 NW18      30.05R WCI   7
SPENCER        CLOUDY    19  13  77 NW24      29.96R WCI   2
STORM LAKE     CLEAR     18  12  79 N22G30    29.96R WCI   0
$$

ABBREVIATIONS USED IN REMARKS
   TC - TEMPERATURE IN CELSIUS
  WCI - WIND CHILL INDEX
   HX - HEAT INDEX
  VSB - VISIBILITY





USA.gov is the U.S. government's official web portal to all federal, state and local government web resources and services.